[[{"header":{"parameterUnit":"m.s-1","parameterCategory":2,"la1":30.2991,"la2":30.254,"lo1":-89.0895,"lo2":-89.0444,"dy":0.0017,"dx":0.0017,"nx":28,"ny":28,"refTime":"2024-04-03T09:00:00:Z","depth":"0","parameterNumber":2,"parameterNumberName":"U-component_of_CURRENTS"},"data":[0,0,0,0,0,0,0,0,0,0,0,0,0,0,0,0,0,0,0,0,0,0,0,0,0,0,0,0,0,0,0,0,0,0,0,0,0,0,0,0,0,0,0,0,0,0,0,0,0,0,0,0,0,0,0,0,0,0,0.3085,0.3086,0,0.3139,0.314,0.314,0.3176,0.3176,0.3177,0.3177,0.3217,0.3218,0.3219,0,0,0,0,0,0,0,0,0,0,0,0,0,0.301,0.3011,0.3085,0.3086,0.3087,0.3139,0.314,0.314,0.3176,0.3176,0.3177,0.3177,0.3217,0.3218,0.3219,0,0,0,0,0,0,0,0,0,0,0,0,0,0.305,0.3012,0.3085,0.3112,0.3115,0.3139,0.314,0.3141,0.3176,0.3176,0.3177,0.3177,0.3217,0.3218,0.3219,0.3215,0,0,0.3222,0.3223,0,0,0,0,0,0,0,0,0.3048,0.3053,0.3107,0.311,0.3113,0.3153,0.3128,0.3165,0.3176,0.3151,0.3177,0.3178,0.3195,0.3198,0.3205,0.3217,0.3219,0.3222,0.3223,0.3223,0.3224,0,0,0,0,0,0,0,0.3045,0.3051,0.3105,0.3108,0.3112,0.312,0.3126,0.3135,0.3168,0.3153,0.3156,0.3164,0.3196,0.3204,0.3206,0.3219,0.3222,0.3223,0.3224,0.3224,0.3262,0.3262,0,0,0,0,0,0,0.3041,0.3048,0.3104,0.3107,0.3083,0.3121,0.3128,0.3138,0.3168,0.3174,0.3164,0.3166,0.3202,0.3205,0.3208,0.3243,0.3223,0.3224,0.3225,0.3262,0.3262,0.3263,0,0,0,0,0,0,0.3039,0.3045,0.3102,0.308,0.3088,0.3122,0.3133,0.3139,0.3154,0.3177,0.3182,0.3173,0.3202,0.3206,0.3224,0.3244,0.3225,0.3226,0.3261,0.3262,0.3262,0.329,0,0,0,0,0,0,0.3037,0.3044,0.305,0.3079,0.3089,0.3126,0.3133,0.314,0.3158,0.3161,0.3186,0.319,0.3203,0.3223,0.3225,0.3245,0.3227,0.3261,0.3262,0.3262,0.3288,0.3291,0.3293,0,0,0,0,0,0.3034,0.3043,0.305,0.3057,0.3096,0.3127,0.3132,0.3157,0.3158,0.317,0.3184,0.319,0.3229,0.3224,0.3227,0.3247,0.3261,0.3261,0.3262,0.3287,0.3291,0.3293,0,0,0,0,0,0,0.301,0.3048,0.3057,0.3076,0.3102,0.3134,0.3148,0.3157,0.3176,0.3179,0.3193,0.3198,0.3224,0.3225,0.3219,0.3258,0.3246,0.3247,0.3264,0.3267,0.327,0.3288,0.3228,0,0,0,0,0,0.3007,0.3028,0.306,0.3076,0.309,0.3116,0.313,0.3147,0.3168,0.3178,0.3191,0.3206,0.3227,0.3238,0.3254,0.3271,0.3295,0.3285,0.3288,0.329,0.3307,0.3349,0.3358,0.3265,0.3265,0.3265,0,0,0.3,0.3025,0.3035,0.3072,0.3095,0.312,0.3127,0.3154,0.3174,0.3178,0.3203,0.3215,0.3233,0.326,0.3271,0.3265,0.3329,0.3291,0.3293,0.3309,0.3351,0.336,0.3369,0.3265,0.3265,0.3265,0,0,0.2998,0.3022,0.3038,0.3064,0.3102,0.3124,0.3131,0.3162,0.3179,0.3201,0.3214,0.3236,0.3256,0.3282,0.3296,0.3318,0.3341,0.3318,0.3349,0.339,0.3399,0.3407,0.3453,0.3465,0.332,0.332,0.332,0,0.2988,0.3017,0.3047,0.3071,0.3095,0.3125,0.3147,0.3171,0.3201,0.322,0.3213,0.3263,0.3272,0.3323,0.3334,0.3327,0.3356,0.3338,0.3396,0.3404,0.3411,0.3457,0.347,0.3321,0.3321,0.3321,0.3321,0,0.3001,0.3026,0.3041,0.3085,0.3111,0.314,0.3178,0.3203,0.322,0.3243,0.3289,0.3306,0.3343,0.3344,0.3348,0.3407,0.3413,0.3395,0.3392,0.3423,0.3468,0.3481,0.3323,0.3323,0.3322,0.3322,0,0,0.2969,0.3038,0.3041,0.3067,0.3124,0.3147,0.319,0.3241,0.3286,0.3302,0.336,0.3383,0.3399,0.3416,0.3426,0.3458,0.353,0.3453,0.3454,0.3507,0.3636,0.3639,0.3653,0.3525,0.3527,0.3529,0.3648,0,0.297,0.3017,0.3051,0.3095,0.3125,0.3174,0.3218,0.3266,0.3315,0.3379,0.3405,0.3464,0.3426,0.3463,0.3485,0.3531,0.3565,0.3501,0.3592,0.3595,0.36,0.3668,0.3659,0.3765,0.3661,0.3663,0.3664,0,0.2963,0.3003,0.3043,0.3119,0.3137,0.3164,0.3254,0.3305,0.3401,0.3447,0.3504,0.3538,0.3604,0.3564,0.3646,0.3611,0.3628,0.3647,0.3651,0.3657,0.3623,0.3716,0.3792,0.3789,0.3684,0.3682,0.3681,0,0.2924,0.2993,0.3027,0.3051,0.3138,0.3164,0.3219,0.3313,0.3379,0.3506,0.3564,0.364,0.3696,0.3727,0.3755,0.3717,0.3846,0.3796,0.3813,0.3813,0.3827,0.3824,0.3919,0.3853,0.3853,0.3852,0.3852,0,0.2913,0.2936,0.3009,0.3029,0.3079,0.3149,0.3226,0.3302,0.3429,0.351,0.3595,0.3674,0.3739,0.3809,0.3812,0.3869,0.3892,0.385,0.3855,0.3834,0.3832,0.3844,0.3801,0.3857,0.3856,0.3855,0.3854,0,0.2854,0.2907,0.2945,0.3031,0.3058,0.3092,0.3216,0.3275,0.3411,0.3526,0.3573,0.3728,0.3838,0.3891,0.398,0.3953,0.3934,0.4006,0.3984,0.3984,0.3975,0.3932,0.381,0.3682,0.4057,0.4058,0.4059,0,0.2827,0.2841,0.2921,0.2941,0.2973,0.3045,0.3089,0.3242,0.3316,0.3541,0.3582,0.3759,0.3862,0.4017,0.4059,0.4119,0.3977,0.4107,0.4021,0.4008,0.3964,0.3742,0.3623,0.4055,0.4056,0.4056,0.4057,0,0.2768,0.2791,0.2825,0.2867,0.2902,0.2959,0.3042,0.3109,0.3291,0.3406,0.3573,0.3696,0.3909,0.4015,0.4126,0.4141,0.398,0.4118,0.4119,0.3995,0.3745,0.3614,0.3943,0.4062,0.4061,0.4061,0.4061,0.4061,0.2704,0.2707,0.2745,0.2776,0.2813,0.2848,0.2866,0.2981,0.31,0.3268,0.3463,0.3639,0.3942,0.4127,0.4101,0.4171,0.4,0.4133,0.4093,0.3876,0.371,0.4053,0.4157,0.4157,0.4157,0.4157,0.4158,0,0.2608,0.2625,0.2651,0.2673,0.2663,0.2726,0.28,0.2813,0.2895,0.3163,0.3314,0.3682,0.3875,0.4069,0.4295,0.4221,0.3945,0.4131,0.3857,0.3744,0.4122,0.4088,0.4165,0.4165,0.4165,0.4165,0.4165,0.4165,0.2556,0.2534,0.2551,0.2506,0.2522,0.2481,0.2497,0.255,0.272,0.2972,0.3221,0.3446,0.3966,0.436,0.4448,0.4319,0.3981,0.3834,0.3697,0.4079,0.4075,0.4072,0.4034,0.4099,0.4099,0.3217,0.3212,0.3207]},{"header":{"parameterUnit":"m.s-1","parameterCategory":2,"la1":30.2991,"la2":30.254,"lo1":-89.0895,"lo2":-89.0444,"dy":0.0017,"dx":0.0017,"nx":28,"ny":28,"refTime":"2024-04-03T09:00:00:Z","depth":"0","parameterNumber":3,"parameterNumberName":"V-component_of_CURRENTS"},"data":[0,0,0,0,0,0,0,0,0,0,0,0,0,0,0,0,0,0,0,0,0,0,0,0,0,0,0,0,0,0,0,0,0,0,0,0,0,0,0,0,0,0,0,0,0,0,0,0,0,0,0,0,0,0,0,0,0,0,-0.005,-0.005,0,-0.0122,-0.0123,-0.0124,-0.0192,-0.0193,-0.0194,-0.0194,-0.0348,-0.0351,-0.0355,0,0,0,0,0,0,0,0,0,0,0,0,0,-0.0029,-0.0029,-0.0049,-0.005,-0.0051,-0.0121,-0.0123,-0.0124,-0.0192,-0.0193,-0.0194,-0.0194,-0.0347,-0.0351,-0.0355,0,0,0,0,0,0,0,0,0,0,0,0,0,-0.0065,-0.0029,-0.0049,-0.0092,-0.0096,-0.0121,-0.0123,-0.0124,-0.0192,-0.0193,-0.0194,-0.0195,-0.0346,-0.0351,-0.0356,-0.0367,0,0,-0.0371,-0.0374,0,0,0,0,0,0,0,0,-0.0062,-0.0066,-0.0085,-0.0089,-0.0094,-0.0147,-0.0172,-0.0209,-0.0192,-0.0158,-0.0194,-0.0195,-0.0286,-0.0296,-0.0309,-0.0374,-0.0381,-0.0372,-0.0375,-0.0377,-0.0379,0,0,0,0,0,0,0,-0.006,-0.0063,-0.008,-0.0086,-0.0091,-0.0127,-0.0133,-0.0179,-0.0218,-0.0161,-0.0165,-0.017,-0.029,-0.0304,-0.0314,-0.0383,-0.0372,-0.0376,-0.038,-0.0382,-0.0467,-0.0466,0,0,0,0,0,0,-0.0043,-0.006,-0.0078,-0.0082,-0.0078,-0.0126,-0.0133,-0.0131,-0.0216,-0.0229,-0.0169,-0.0173,-0.0295,-0.0308,-0.0319,-0.0335,-0.0377,-0.0382,-0.0385,-0.0468,-0.0467,-0.0466,0,0,0,0,0,0,-0.0042,-0.0043,-0.0075,-0.0072,-0.0078,-0.0125,-0.0122,-0.0132,-0.0145,-0.0221,-0.0236,-0.0172,-0.0296,-0.0312,-0.0349,-0.0342,-0.0384,-0.0389,-0.0469,-0.0468,-0.0466,-0.0368,0,0,0,0,0,0,-0.0041,-0.0042,-0.0035,-0.007,-0.0078,-0.0078,-0.0121,-0.0132,-0.0145,-0.0151,-0.0229,-0.0244,-0.0298,-0.0341,-0.0354,-0.035,-0.0393,-0.047,-0.0468,-0.0467,-0.0373,-0.0364,-0.0357,0,0,0,0,0,-0.004,-0.002,-0.0034,-0.0037,-0.0066,-0.0077,-0.0083,-0.0123,-0.0144,-0.014,-0.0191,-0.0242,-0.0341,-0.0344,-0.036,-0.0357,-0.0471,-0.0469,-0.0467,-0.0376,-0.0366,-0.0357,0,0,0,0,0,0,-0.0008,-0.0027,-0.0043,-0.003,-0.0048,-0.0087,-0.0088,-0.0112,-0.0148,-0.0157,-0.0231,-0.0249,-0.0278,-0.0326,-0.0328,-0.0376,-0.0414,-0.0415,-0.034,-0.0331,-0.0323,-0.03,-0.0398,0,0,0,0,0,0.0004,0.0012,-0.0012,-0.0004,-0.0008,-0.0045,-0.0055,-0.0078,-0.0114,-0.0131,-0.0182,-0.0238,-0.0282,-0.0312,-0.0356,-0.0383,-0.0427,-0.0391,-0.0383,-0.0376,-0.0367,-0.0421,-0.0417,-0.046,-0.046,-0.046,0,0,0.0017,0.0009,0.0011,0.0003,-0.0016,-0.0008,-0.0054,-0.0059,-0.0058,-0.0142,-0.0157,-0.0209,-0.028,-0.0307,-0.0326,-0.0349,-0.0384,-0.0373,-0.0366,-0.0362,-0.0419,-0.0415,-0.0411,-0.0458,-0.0459,-0.0459,0,0,0.0055,0.0043,0.0064,0.0059,0.0045,0.0023,0.0028,-0.0002,-0.0022,-0.0039,-0.0098,-0.0141,-0.0207,-0.0257,-0.0291,-0.0265,-0.0335,-0.0279,-0.023,-0.0281,-0.0278,-0.0276,-0.0317,-0.0319,-0.0282,-0.0281,-0.0281,0,0.007,0.0096,0.0068,0.009,0.0093,0.0044,0.007,0.0047,0.0008,-0.0001,-0.0031,-0.0119,-0.0184,-0.0221,-0.0215,-0.0248,-0.0282,-0.0261,-0.027,-0.0269,-0.0269,-0.0311,-0.0315,-0.0276,-0.0277,-0.0277,-0.0278,0,0.0126,0.0145,0.0159,0.0169,0.0168,0.0183,0.0154,0.0147,0.0116,0.0087,0.0052,-0.003,-0.0084,-0.0113,-0.0161,-0.0186,-0.0212,-0.0248,-0.0293,-0.0259,-0.0305,-0.0311,-0.0269,-0.0271,-0.0273,-0.0274,0,0,0.0167,0.0194,0.0198,0.022,0.0214,0.0222,0.0227,0.0219,0.0229,0.0171,0.0173,0.0084,0.0039,-0.0003,-0.0071,-0.0123,-0.0156,-0.0177,-0.0182,-0.0212,-0.0258,-0.0273,-0.0282,-0.0193,-0.0193,-0.0194,-0.0288,0,0.0219,0.0283,0.0276,0.0328,0.0359,0.0325,0.034,0.0322,0.0294,0.0283,0.019,0.0162,0.008,0.0059,-0.0006,-0.0117,-0.0167,-0.0126,-0.0291,-0.0296,-0.031,-0.0288,-0.0282,-0.0366,-0.0295,-0.0296,-0.0296,0,0.0278,0.0316,0.0381,0.0419,0.0429,0.0446,0.0463,0.0474,0.0438,0.0416,0.0364,0.0293,0.0208,0.0137,-0.0035,-0.0002,-0.0115,-0.0207,-0.0214,-0.0266,-0.0322,-0.0392,-0.038,-0.0628,-0.0306,-0.0305,-0.0305,0,0.0332,0.0387,0.0443,0.0457,0.049,0.0508,0.0523,0.0513,0.0543,0.0504,0.0513,0.0394,0.0344,0.0187,-0.0006,-0.002,-0.0191,-0.0241,-0.036,-0.0363,-0.041,-0.0415,-0.0655,-0.0355,-0.0354,-0.0354,-0.0354,0,0.0393,0.0439,0.0473,0.0507,0.0583,0.0576,0.0648,0.0644,0.0655,0.0708,0.059,0.0597,0.0355,0.0226,0.0038,-0.017,-0.0163,-0.0343,-0.0387,-0.0374,-0.0375,-0.0636,-0.0772,-0.0358,-0.0357,-0.0356,-0.0356,0,0.0445,0.0466,0.054,0.0589,0.0615,0.067,0.0749,0.0798,0.0795,0.0859,0.0854,0.0743,0.0577,0.0333,0.0075,-0.0101,-0.0456,-0.0384,-0.0345,-0.0382,-0.0723,-0.0852,-0.1138,-0.1266,-0.0532,-0.0533,-0.0534,0,0.0478,0.0523,0.0611,0.0667,0.0693,0.0777,0.0842,0.0872,0.0937,0.0961,0.1,0.0862,0.08,0.0416,0.0064,-0.0263,-0.0497,-0.0471,-0.0506,-0.0738,-0.0916,-0.1018,-0.1112,-0.0532,-0.0533,-0.0533,-0.0534,0,0.0546,0.0572,0.0634,0.0758,0.0836,0.0942,0.1036,0.1116,0.1162,0.1214,0.126,0.1214,0.0848,0.0528,0.0069,-0.0183,-0.0661,-0.0492,-0.0756,-0.095,-0.1056,-0.1199,-0.0472,-0.0539,-0.0538,-0.0538,-0.0537,-0.0537,0.0595,0.0653,0.0739,0.0854,0.0956,0.1094,0.1207,0.1308,0.144,0.1556,0.1483,0.1495,0.1001,0.0375,-0.002,-0.0712,-0.0731,-0.091,-0.105,-0.1133,-0.1258,-0.0529,-0.063,-0.063,-0.063,-0.063,-0.063,0,0.0659,0.0724,0.0832,0.0976,0.1101,0.1145,0.1329,0.1453,0.163,0.1757,0.1808,0.1627,0.0987,0.0339,-0.0586,-0.1134,-0.136,-0.1454,-0.1621,-0.1693,-0.1064,-0.1064,-0.1236,-0.1236,-0.1236,-0.1235,-0.1235,-0.1235,0.0694,0.0804,0.0861,0.1073,0.1181,0.1374,0.1496,0.1679,0.1835,0.204,0.2117,0.2115,0.1673,-0.0128,-0.1382,-0.1704,-0.2094,-0.2197,-0.2401,-0.1992,-0.1953,-0.1915,-0.1949,-0.2304,-0.2306,-0.2967,-0.2974,-0.2979]}],[{"header":{"parameterUnit":"m.s-1","parameterCategory":2,"la1":30.2991,"la2":30.254,"lo1":-89.0895,"lo2":-89.0444,"dy":0.0017,"dx":0.0017,"nx":28,"ny":28,"refTime":"2024-04-03T09:00:00:Z","depth":"2","parameterNumber":2,"parameterNumberName":"U-component_of_CURRENTS"},"data":[0,0,0,0,0,0,0,0,0,0,0,0,0,0,0,0,0,0,0,0,0,0,0,0,0,0,0,0,0,0,0,0,0,0,0,0,0,0,0,0,0,0,0,0,0,0,0,0,0,0,0,0,0,0,0,0,0,0,0.2915,0.2916,0,0.297,0.297,0.2971,0.3013,0.3013,0.3013,0.3014,0.306,0.3061,0.3062,0,0,0,0,0,0,0,0,0,0,0,0,0,0.2844,0.2845,0.2915,0.2916,0.2916,0.297,0.297,0.2971,0.3012,0.3013,0.3014,0.3014,0.306,0.3061,0.3062,0,0,0,0,0,0,0,0,0,0,0,0,0,0.2884,0.2845,0.2915,0.2944,0.2947,0.297,0.2971,0.2971,0.3012,0.3013,0.3014,0.3014,0.3059,0.3061,0.3062,0.3056,0,0,0.3065,0.3066,0,0,0,0,0,0,0,0,0.2881,0.2886,0.2939,0.2942,0.2946,0.2986,0.2962,0.2999,0.3012,0.2987,0.3014,0.3015,0.3034,0.3038,0.3046,0.3058,0.306,0.3066,0.3066,0.3067,0.3067,0,0,0,0,0,0,0,0.2878,0.2884,0.2936,0.294,0.2944,0.2954,0.296,0.297,0.3005,0.2989,0.2992,0.2999,0.3036,0.3044,0.3047,0.3061,0.3066,0.3067,0.3067,0.3068,0.3115,0.3116,0,0,0,0,0,0,0.2873,0.2881,0.2934,0.2938,0.2915,0.2955,0.2962,0.2972,0.3006,0.3012,0.2999,0.3001,0.3042,0.3045,0.3049,0.3092,0.3067,0.3068,0.3069,0.3115,0.3116,0.3116,0,0,0,0,0,0,0.2871,0.2877,0.2932,0.2911,0.2919,0.2955,0.2966,0.2972,0.2993,0.3013,0.3019,0.3014,0.3043,0.3047,0.3071,0.3092,0.3069,0.307,0.3114,0.3115,0.3116,0.3148,0,0,0,0,0,0,0.2869,0.2876,0.2884,0.2911,0.292,0.2959,0.2966,0.2973,0.2995,0.2999,0.3028,0.3032,0.3043,0.3069,0.3072,0.3093,0.3071,0.3114,0.3115,0.3116,0.3146,0.3149,0.3152,0,0,0,0,0,0.2866,0.2876,0.2884,0.2891,0.2929,0.296,0.2966,0.2993,0.2996,0.3012,0.3028,0.3032,0.3078,0.307,0.3074,0.3096,0.3113,0.3114,0.3116,0.3144,0.3149,0.3152,0,0,0,0,0,0,0.2847,0.2882,0.2892,0.2912,0.2939,0.2968,0.2986,0.2996,0.302,0.3025,0.3038,0.3044,0.3075,0.3075,0.3067,0.3112,0.3096,0.3098,0.3117,0.3121,0.3124,0.314,0.3072,0,0,0,0,0,0.2846,0.2867,0.2897,0.2914,0.2931,0.2957,0.2972,0.299,0.3013,0.3025,0.304,0.3057,0.3079,0.3092,0.3109,0.3129,0.315,0.3145,0.3148,0.3151,0.3166,0.3207,0.3216,0.312,0.312,0.312,0,0,0.2841,0.2865,0.2875,0.2912,0.2937,0.2963,0.2969,0.2999,0.3021,0.3024,0.3056,0.3069,0.3087,0.3117,0.3131,0.3123,0.319,0.3153,0.3155,0.3169,0.321,0.3219,0.3228,0.3121,0.3121,0.3121,0,0,0.2843,0.2867,0.2885,0.2912,0.2951,0.2972,0.2982,0.3014,0.3034,0.306,0.3072,0.3098,0.3121,0.3146,0.3159,0.3187,0.3206,0.3189,0.3222,0.3261,0.327,0.3278,0.3323,0.3334,0.3191,0.3191,0.3191,0,0.2837,0.2865,0.2895,0.2921,0.2945,0.2977,0.3001,0.3027,0.306,0.308,0.3075,0.3129,0.3138,0.3189,0.3203,0.3197,0.3225,0.3206,0.3267,0.3275,0.3283,0.3327,0.3339,0.3193,0.3192,0.3192,0.3192,0,0.2852,0.2879,0.2895,0.294,0.2968,0.2999,0.3037,0.3066,0.3086,0.3108,0.3158,0.3177,0.3215,0.3217,0.3221,0.3281,0.3286,0.3267,0.326,0.3295,0.3339,0.3351,0.3195,0.3194,0.3194,0.3194,0,0,0.2827,0.2894,0.2899,0.2925,0.2984,0.3007,0.3053,0.3105,0.3151,0.3171,0.323,0.3255,0.3273,0.329,0.3301,0.3332,0.3405,0.3327,0.3328,0.3378,0.3508,0.3506,0.3519,0.3401,0.3403,0.3404,0.352,0,0.2833,0.288,0.2913,0.296,0.299,0.3039,0.3084,0.3133,0.3183,0.3248,0.3274,0.3334,0.33,0.3339,0.3361,0.3406,0.3439,0.3377,0.3462,0.3465,0.3464,0.3534,0.3262,0.3342,0.3532,0.3534,0.3535,0,0.2831,0.2869,0.2911,0.2984,0.3003,0.3032,0.3124,0.3175,0.327,0.3316,0.3375,0.3409,0.3475,0.3438,0.3519,0.3485,0.3503,0.352,0.3524,0.3522,0.3487,0.3336,0.3357,0.3556,0.3554,0.3553,0.3552,0,0.2796,0.2864,0.2899,0.2922,0.3008,0.3036,0.3091,0.3185,0.3251,0.3377,0.3435,0.351,0.3567,0.3597,0.3626,0.359,0.3714,0.3665,0.3676,0.3676,0.3463,0.3441,0.372,0.372,0.372,0.372,0.3719,0,0.2788,0.2812,0.2883,0.2904,0.2955,0.3024,0.3103,0.3178,0.3303,0.3383,0.3468,0.3546,0.3611,0.3678,0.3681,0.3734,0.3759,0.3712,0.3716,0.3467,0.3445,0.3636,0.3625,0.3724,0.3723,0.3722,0.3722,0,0.2735,0.2786,0.2825,0.2909,0.2936,0.2973,0.3097,0.3155,0.3291,0.3405,0.3451,0.3601,0.3707,0.3759,0.3843,0.3815,0.386,0.3862,0.3579,0.3548,0.378,0.3769,0.3903,0.3904,0.3905,0.3906,0.3906,0,0.2711,0.2726,0.2805,0.2826,0.2859,0.2932,0.2978,0.3128,0.32,0.342,0.3458,0.363,0.3724,0.387,0.3868,0.3913,0.3922,0.3678,0.3558,0.3814,0.3805,0.3792,0.378,0.3282,0.3278,0.3274,0.3271,0,0.2657,0.2681,0.2714,0.2758,0.2794,0.2851,0.2935,0.2999,0.3176,0.3287,0.3446,0.3559,0.3724,0.368,0.3765,0.3734,0.3655,0.361,0.395,0.3294,0.3243,0.3229,0.3234,0.3238,0.3242,0.3244,0.3246,0.3247,0.2599,0.2602,0.2639,0.2672,0.2711,0.2743,0.2762,0.2861,0.2972,0.3091,0.3294,0.3358,0.3459,0.3465,0.3395,0.3339,0.3575,0.3406,0.341,0.342,0.3344,0.3299,0.3291,0.3294,0.3297,0.33,0.3302,0,0.2501,0.2525,0.2552,0.2575,0.2557,0.2629,0.2699,0.2677,0.2734,0.2902,0.301,0.2856,0.2902,0.2978,0.2871,0.2923,0.2815,0.2794,0.2613,0.2653,0.2687,0.2563,0.2307,0.2303,0.23,0.2296,0,0,0.245,0.2426,0.2442,0.2394,0.2418,0.2359,0.2372,0.2362,0.2439,0.2452,0.2489,0.2736,0.2923,0.2552,0.2554,0.2411,0.2488,0.2321,0.3136,0.2965,0.2992,0.3084,0.2948,0,0,0,0,0]},{"header":{"parameterUnit":"m.s-1","parameterCategory":2,"la1":30.2991,"la2":30.254,"lo1":-89.0895,"lo2":-89.0444,"dy":0.0017,"dx":0.0017,"nx":28,"ny":28,"refTime":"2024-04-03T09:00:00:Z","depth":"2","parameterNumber":3,"parameterNumberName":"V-component_of_CURRENTS"},"data":[0,0,0,0,0,0,0,0,0,0,0,0,0,0,0,0,0,0,0,0,0,0,0,0,0,0,0,0,0,0,0,0,0,0,0,0,0,0,0,0,0,0,0,0,0,0,0,0,0,0,0,0,0,0,0,0,0,0,0.0026,0.0026,0,-0.0045,-0.0046,-0.0047,-0.0114,-0.0115,-0.0115,-0.0116,-0.0267,-0.0271,-0.0274,0,0,0,0,0,0,0,0,0,0,0,0,0,0.0047,0.0047,0.0026,0.0026,0.0025,-0.0045,-0.0046,-0.0047,-0.0114,-0.0115,-0.0116,-0.0116,-0.0266,-0.027,-0.0274,0,0,0,0,0,0,0,0,0,0,0,0,0,0.0011,0.0047,0.0026,-0.0015,-0.002,-0.0045,-0.0046,-0.0047,-0.0114,-0.0115,-0.0116,-0.0117,-0.0265,-0.027,-0.0275,-0.0286,0,0,-0.0291,-0.0293,0,0,0,0,0,0,0,0,0.0014,0.001,-0.0009,-0.0013,-0.0017,-0.007,-0.0094,-0.0131,-0.0113,-0.008,-0.0116,-0.0117,-0.0207,-0.0217,-0.0229,-0.0293,-0.03,-0.0291,-0.0294,-0.0296,-0.0298,0,0,0,0,0,0,0,0.0016,0.0013,-0.0004,-0.0009,-0.0015,-0.005,-0.0056,-0.0101,-0.014,-0.0083,-0.0088,-0.0092,-0.021,-0.0224,-0.0234,-0.0302,-0.0291,-0.0295,-0.0299,-0.03,-0.0389,-0.0389,0,0,0,0,0,0,0.0033,0.0016,-0.0002,-0.0006,-0.0002,-0.0049,-0.0056,-0.0054,-0.0138,-0.015,-0.0091,-0.0095,-0.0215,-0.0228,-0.0239,-0.0258,-0.0296,-0.0301,-0.0304,-0.039,-0.0389,-0.0389,0,0,0,0,0,0,0.0034,0.0032,0.0001,0.0004,-0.0002,-0.0048,-0.0045,-0.0054,-0.0069,-0.0143,-0.0158,-0.0096,-0.0216,-0.0232,-0.0271,-0.0264,-0.0303,-0.0308,-0.0391,-0.039,-0.0389,-0.0295,0,0,0,0,0,0,0.0035,0.0033,0.0039,0.0006,-0.0002,-0.0004,-0.0044,-0.0055,-0.0069,-0.0075,-0.0152,-0.0167,-0.0218,-0.0262,-0.0275,-0.0272,-0.0312,-0.0392,-0.039,-0.0389,-0.0299,-0.0291,-0.0284,0,0,0,0,0,0.0036,0.0054,0.004,0.0038,0.0009,-0.0003,-0.0009,-0.0048,-0.0068,-0.0066,-0.0116,-0.0164,-0.0264,-0.0265,-0.0281,-0.0279,-0.0392,-0.0391,-0.0389,-0.0302,-0.0292,-0.0284,0,0,0,0,0,0,0.0065,0.0048,0.0032,0.0043,0.0025,-0.0013,-0.0015,-0.0039,-0.0075,-0.0084,-0.0156,-0.0173,-0.0204,-0.0251,-0.0251,-0.03,-0.0336,-0.0338,-0.0265,-0.0256,-0.0249,-0.0226,-0.0316,0,0,0,0,0,0.0077,0.0084,0.006,0.0068,0.0063,0.0026,0.0015,-0.0007,-0.0042,-0.0059,-0.011,-0.0165,-0.0208,-0.0238,-0.0282,-0.031,-0.0353,-0.0318,-0.0311,-0.0304,-0.0296,-0.0349,-0.0346,-0.0383,-0.0383,-0.0383,0,0,0.0088,0.0081,0.0083,0.0074,0.0055,0.0061,0.0017,0.0011,0.0011,-0.0071,-0.0087,-0.0138,-0.0208,-0.0236,-0.0255,-0.0277,-0.0314,-0.0302,-0.0296,-0.0291,-0.0347,-0.0344,-0.0341,-0.0382,-0.0382,-0.0383,0,0,0.0123,0.0112,0.0132,0.0126,0.0111,0.0089,0.0093,0.0063,0.0044,0.0024,-0.0033,-0.0076,-0.0141,-0.0189,-0.0223,-0.0201,-0.0268,-0.0215,-0.0168,-0.022,-0.0217,-0.0215,-0.0256,-0.0259,-0.0218,-0.0217,-0.0217,0,0.0137,0.0162,0.0135,0.0155,0.0158,0.0109,0.0134,0.011,0.0071,0.0061,0.0031,-0.0057,-0.012,-0.0157,-0.0152,-0.0185,-0.0219,-0.0196,-0.0209,-0.0209,-0.0208,-0.0251,-0.0256,-0.0213,-0.0213,-0.0214,-0.0214,0,0.019,0.0208,0.0221,0.023,0.0228,0.0241,0.0213,0.0204,0.0173,0.0144,0.0108,0.0027,-0.0026,-0.0055,-0.0101,-0.0128,-0.0153,-0.0188,-0.0229,-0.0199,-0.0246,-0.0252,-0.0206,-0.0208,-0.0209,-0.021,0,0,0.0227,0.0254,0.0258,0.0279,0.0272,0.0279,0.0283,0.0274,0.0283,0.0224,0.0224,0.0136,0.0091,0.0051,-0.0015,-0.0068,-0.0102,-0.012,-0.0125,-0.0155,-0.0206,-0.0223,-0.0232,-0.0138,-0.0139,-0.014,-0.0236,0,0.0276,0.0338,0.0332,0.0381,0.0411,0.0378,0.0391,0.0373,0.0344,0.0331,0.024,0.0212,0.0132,0.011,0.0046,-0.0064,-0.0115,-0.0072,-0.0237,-0.0241,-0.0256,-0.0238,-0.021,-0.0293,-0.0243,-0.0244,-0.0245,0,0.0332,0.0369,0.0432,0.047,0.0479,0.0495,0.051,0.052,0.0483,0.046,0.0408,0.0338,0.0253,0.0184,0.0013,0.0046,-0.0066,-0.0156,-0.0163,-0.0215,-0.0269,-0.0319,-0.0307,-0.0256,-0.0255,-0.0254,-0.0253,0,0.0383,0.0437,0.0492,0.0506,0.0538,0.0555,0.0569,0.0558,0.0586,0.0546,0.0553,0.0435,0.0384,0.0229,0.0038,0.0026,-0.0147,-0.0194,-0.0313,-0.0316,-0.0343,-0.0346,-0.0307,-0.0307,-0.0307,-0.0307,-0.0306,0,0.0442,0.0487,0.0521,0.0555,0.0628,0.0621,0.069,0.0686,0.0695,0.0744,0.0627,0.0631,0.0394,0.0264,0.008,-0.0128,-0.012,-0.0297,-0.0341,-0.0308,-0.0307,-0.0318,-0.0318,-0.031,-0.0309,-0.0309,-0.0308,0,0.0492,0.0512,0.0586,0.0634,0.0659,0.0712,0.079,0.0836,0.0831,0.089,0.0884,0.0772,0.0605,0.0365,0.0109,-0.0063,-0.0268,-0.0343,-0.0282,-0.0316,-0.0414,-0.0408,-0.0489,-0.049,-0.0491,-0.0492,-0.0493,0,0.0524,0.0568,0.0655,0.0709,0.0735,0.0817,0.088,0.0908,0.0971,0.0989,0.1024,0.0883,0.0816,0.0435,0.0094,-0.0229,-0.027,-0.0411,-0.0439,-0.0397,-0.0432,-0.0424,-0.0417,-0.0439,-0.044,-0.044,-0.044,0,0.059,0.0615,0.0677,0.0798,0.0874,0.0978,0.1069,0.1146,0.1188,0.1233,0.1271,0.1219,0.0857,0.0536,0.0085,-0.0141,-0.0361,-0.0426,-0.0406,-0.039,-0.0357,-0.0389,-0.0382,-0.0442,-0.0442,-0.0442,-0.0442,-0.0442,0.0637,0.0695,0.0779,0.0892,0.0991,0.1126,0.1235,0.1325,0.1448,0.1529,0.1464,0.1401,0.1023,0.0456,0.0051,-0.0383,-0.0367,-0.0508,-0.0505,-0.0502,-0.0472,-0.0442,-0.0537,-0.0537,-0.0538,-0.0538,-0.0538,0,0.07,0.0764,0.087,0.101,0.1131,0.1176,0.1354,0.1456,0.1613,0.1668,0.1692,0.1363,0.098,0.054,-0.0095,-0.0468,-0.0507,-0.059,-0.0547,-0.0541,-0.0537,-0.0507,-0.0583,-0.0585,-0.0586,-0.0587,0,0,0.0735,0.0842,0.0897,0.1103,0.1208,0.1391,0.1508,0.165,0.1741,0.1816,0.1787,0.167,0.1141,0.0687,0.016,-0.0206,-0.0289,-0.0289,-0.0213,-0.0095,-0.0086,-0.0453,-0.0396,0,0,0,0,0]}],[{"header":{"parameterUnit":"m.s-1","parameterCategory":2,"la1":30.2991,"la2":30.254,"lo1":-89.0895,"lo2":-89.0444,"dy":0.0017,"dx":0.0017,"nx":28,"ny":28,"refTime":"2024-04-03T09:00:00:Z","depth":"4","parameterNumber":2,"parameterNumberName":"U-component_of_CURRENTS"},"data":[0,0,0,0,0,0,0,0,0,0,0,0,0,0,0,0,0,0,0,0,0,0,0,0,0,0,0,0,0,0,0,0,0,0,0,0,0,0,0,0,0,0,0,0,0,0,0,0,0,0,0,0,0,0,0,0,0,0,0.1725,0.1727,0,0.1822,0.1823,0.1823,0.1879,0.188,0.1881,0.1881,0.2002,0.2005,0.2007,0,0,0,0,0,0,0,0,0,0,0,0,0,0.1598,0.1599,0.1725,0.1727,0.1728,0.1822,0.1823,0.1823,0.1879,0.188,0.1881,0.1882,0.2001,0.2004,0.2007,0,0,0,0,0,0,0,0,0,0,0,0,0,0.1664,0.16,0.1725,0.1771,0.1777,0.1822,0.1823,0.1824,0.1879,0.188,0.1881,0.1882,0.2,0.2004,0.2008,0.201,0,0,0.2019,0.2021,0,0,0,0,0,0,0,0,0.1661,0.1668,0.1763,0.1768,0.1775,0.1844,0.1822,0.1889,0.1879,0.1834,0.1881,0.1883,0.1954,0.1962,0.197,0.2016,0.2021,0.202,0.2022,0.2024,0.2025,0,0,0,0,0,0,0,0.1656,0.1665,0.1758,0.1765,0.1772,0.1791,0.1801,0.1835,0.1884,0.1838,0.1844,0.1863,0.1957,0.1966,0.1973,0.2023,0.202,0.2023,0.2026,0.2027,0.2214,0.2216,0,0,0,0,0,0,0.1653,0.166,0.1755,0.1761,0.1725,0.1793,0.1804,0.1816,0.1883,0.1895,0.1862,0.1865,0.1959,0.1969,0.1978,0.2098,0.2024,0.2027,0.203,0.2211,0.2214,0.2217,0,0,0,0,0,0,0.165,0.166,0.1751,0.1718,0.1731,0.1794,0.1808,0.1818,0.1873,0.1902,0.1914,0.1912,0.196,0.1972,0.2057,0.2099,0.2029,0.2033,0.2208,0.2212,0.2216,0.2266,0,0,0,0,0,0,0.1646,0.1658,0.1684,0.1717,0.1733,0.1808,0.1808,0.1819,0.1882,0.1889,0.1948,0.1957,0.1962,0.2052,0.2061,0.2103,0.2036,0.2205,0.221,0.2214,0.2261,0.2271,0.228,0,0,0,0,0,0.1641,0.1665,0.1685,0.1698,0.1761,0.1811,0.1821,0.1865,0.1884,0.1916,0.1966,0.1958,0.209,0.2057,0.2067,0.2111,0.2202,0.2208,0.2214,0.2257,0.2269,0.228,0,0,0,0,0,0,0.1628,0.1675,0.1697,0.1737,0.1787,0.1823,0.1863,0.1891,0.1952,0.1973,0.1993,0.2007,0.2094,0.2103,0.2067,0.2183,0.2144,0.2153,0.2174,0.2186,0.2195,0.2189,0.2039,0,0,0,0,0,0.1636,0.1669,0.1716,0.1756,0.1783,0.1831,0.1865,0.1898,0.1949,0.1979,0.2023,0.2074,0.2118,0.2155,0.2193,0.226,0.2265,0.2297,0.2306,0.2314,0.2319,0.2362,0.2375,0.2237,0.2237,0.2237,0,0,0.1643,0.1676,0.1697,0.1757,0.1798,0.1844,0.1854,0.1921,0.1969,0.1982,0.2075,0.2112,0.2145,0.2217,0.2257,0.2237,0.2361,0.2321,0.2327,0.2328,0.237,0.2383,0.2394,0.2241,0.224,0.2239,0,0,0.1666,0.1705,0.1739,0.1782,0.1857,0.1885,0.1916,0.1983,0.2026,0.2112,0.2132,0.2199,0.2278,0.2303,0.2323,0.2412,0.2408,0.2436,0.2481,0.2523,0.2534,0.2544,0.2577,0.2589,0.2441,0.2441,0.2441,0,0.1678,0.1723,0.1761,0.1806,0.185,0.1909,0.1958,0.2006,0.2098,0.2138,0.2156,0.2282,0.231,0.2383,0.2417,0.2431,0.2456,0.2428,0.2533,0.2543,0.2552,0.2583,0.2596,0.2445,0.2444,0.2444,0.2444,0,0.1715,0.1768,0.1796,0.1867,0.1917,0.1975,0.2039,0.2107,0.2169,0.2214,0.2321,0.2368,0.2442,0.2463,0.2469,0.2555,0.2554,0.2535,0.2495,0.2568,0.2597,0.261,0.2449,0.2448,0.2447,0.2446,0,0,0.1699,0.18,0.1816,0.1858,0.1957,0.1996,0.2084,0.2169,0.2239,0.2324,0.2411,0.2486,0.2526,0.2553,0.2577,0.2615,0.2701,0.2614,0.2615,0.2631,0.2804,0.2639,0.2636,0.2707,0.271,0.2712,0.2801,0,0.1725,0.1804,0.1855,0.1944,0.1989,0.2066,0.2143,0.2229,0.2315,0.2415,0.2469,0.2567,0.2556,0.2617,0.2652,0.2699,0.2736,0.2678,0.2745,0.2747,0.2577,0.2645,0.2719,0.281,0.2813,0.2815,0.2816,0,0.174,0.1795,0.1877,0.1983,0.2012,0.208,0.221,0.2293,0.2426,0.2497,0.2593,0.2649,0.2741,0.2717,0.2814,0.2787,0.2806,0.282,0.2824,0.2656,0.2603,0.2723,0.2838,0.2836,0.2835,0.2833,0.2832,0,0.1692,0.1807,0.1871,0.1908,0.2037,0.2101,0.2188,0.2325,0.2407,0.2571,0.2649,0.2752,0.2831,0.2871,0.2909,0.2886,0.2996,0.2959,0.2821,0.2811,0.2908,0.2897,0.3016,0.3016,0.3016,0.3016,0.3016,0,0.1675,0.1732,0.1861,0.1896,0.1991,0.2097,0.2223,0.2324,0.2481,0.2572,0.27,0.2774,0.2879,0.2946,0.2954,0.2925,0.3035,0.2839,0.2823,0.293,0.292,0.2917,0.2904,0.3019,0.3018,0.3018,0.3017,0,0.1605,0.1691,0.1769,0.1915,0.197,0.2044,0.2232,0.2309,0.2484,0.261,0.2669,0.2827,0.2913,0.2983,0.306,0.297,0.2968,0.2928,0.3056,0.3045,0.2745,0.2735,0.278,0.2775,0.2771,0.2767,0.2764,0,0.1568,0.1605,0.1762,0.1814,0.1889,0.2022,0.2105,0.2292,0.2373,0.2606,0.2639,0.2799,0.2877,0.2854,0.294,0.2951,0.2909,0.2888,0.279,0.2741,0.2723,0.2719,0.2714,0.2757,0.2756,0.2755,0.2754,0,0.1493,0.1565,0.1627,0.1738,0.1831,0.1925,0.2064,0.2107,0.2311,0.2481,0.2553,0.2605,0.2697,0.2744,0.278,0.2775,0.2889,0.2842,0.2849,0.2757,0.2713,0.2699,0.2699,0.2739,0.2741,0.2742,0.2743,0,0.1435,0.1458,0.1551,0.1635,0.1739,0.1791,0.1887,0.1979,0.2083,0.2329,0.2343,0.2511,0.2663,0.2654,0.2683,0.2675,0.2625,0.2521,0.2545,0.2562,0.2447,0.2357,0.2267,0,0,0,0,0,0.1362,0.1374,0.1441,0.1518,0.1614,0.1678,0.1832,0.193,0.2119,0.2108,0.2224,0.2297,0.2357,0.2447,0.2393,0.2587,0.2634,0.2513,0.2525,0.2656,0.2673,0.2556,0,0,0,0,0,0,0.131,0.1361,0.139,0.1397,0.1428,0.1518,0.1605,0.1739,0.1754,0.1954,0.2,0.2151,0.2246,0.2357,0.2344,0.2371,0.233,0.2624,0.2618,0.2646,0.2662,0.2676,0.2562,0,0,0,0,0]},{"header":{"parameterUnit":"m.s-1","parameterCategory":2,"la1":30.2991,"la2":30.254,"lo1":-89.0895,"lo2":-89.0444,"dy":0.0017,"dx":0.0017,"nx":28,"ny":28,"refTime":"2024-04-03T09:00:00:Z","depth":"4","parameterNumber":3,"parameterNumberName":"V-component_of_CURRENTS"},"data":[0,0,0,0,0,0,0,0,0,0,0,0,0,0,0,0,0,0,0,0,0,0,0,0,0,0,0,0,0,0,0,0,0,0,0,0,0,0,0,0,0,0,0,0,0,0,0,0,0,0,0,0,0,0,0,0,0,0,0.0156,0.0155,0,0.0106,0.0105,0.0105,0.0071,0.0071,0.007,0.007,-0.0042,-0.0045,-0.0047,0,0,0,0,0,0,0,0,0,0,0,0,0,0.0175,0.0175,0.0156,0.0155,0.0155,0.0106,0.0105,0.0104,0.0071,0.0071,0.007,0.007,-0.0041,-0.0044,-0.0048,0,0,0,0,0,0,0,0,0,0,0,0,0,0.015,0.0175,0.0156,0.0132,0.013,0.0106,0.0105,0.0104,0.0071,0.007,0.007,0.007,-0.004,-0.0044,-0.0048,-0.0068,0,0,-0.0061,-0.0063,0,0,0,0,0,0,0,0,0.0151,0.0149,0.0136,0.0134,0.0131,0.0095,0.0071,0.0044,0.0071,0.0093,0.007,0.007,-0.0002,-0.0009,-0.0017,-0.0073,-0.0078,-0.0061,-0.0064,-0.0066,-0.0067,0,0,0,0,0,0,0,0.0153,0.0151,0.0136,0.0136,0.0133,0.0108,0.0105,0.0066,0.0047,0.0091,0.0088,0.0084,-0.0004,-0.0013,-0.002,-0.0079,-0.0061,-0.0065,-0.0067,-0.0069,-0.0169,-0.0169,0,0,0,0,0,0,0.0163,0.0153,0.0137,0.0134,0.0141,0.0108,0.0104,0.0106,0.0048,0.004,0.0084,0.0082,-0.0006,-0.0015,-0.0024,-0.0047,-0.0065,-0.0069,-0.0072,-0.0169,-0.0169,-0.0169,0,0,0,0,0,0,0.0164,0.0163,0.0139,0.0142,0.0138,0.0109,0.0111,0.0105,0.0097,0.0044,0.0034,0.0081,-0.0006,-0.0019,-0.0055,-0.0052,-0.0071,-0.0075,-0.0169,-0.0169,-0.0169,-0.0096,0,0,0,0,0,0,0.0165,0.0163,0.0168,0.0143,0.0138,0.0132,0.0111,0.0105,0.0094,0.0092,0.0038,0.0027,-0.0008,-0.0049,-0.0059,-0.0058,-0.0078,-0.0168,-0.0169,-0.0169,-0.0098,-0.0094,-0.009,0,0,0,0,0,0.0166,0.0177,0.0169,0.0167,0.0146,0.0132,0.0127,0.0104,0.0095,0.0095,0.0058,0.0029,-0.0058,-0.0052,-0.0064,-0.0065,-0.0168,-0.0169,-0.0169,-0.01,-0.0094,-0.009,0,0,0,0,0,0,0.0185,0.0174,0.0165,0.0171,0.0155,0.0127,0.0126,0.0109,0.0082,0.0078,0.0028,0.0015,-0.0016,-0.0053,-0.0044,-0.0096,-0.0119,-0.0122,-0.0062,-0.0057,-0.0053,-0.0033,-0.0082,0,0,0,0,0,0.0194,0.02,0.018,0.0184,0.0181,0.0154,0.0145,0.0131,0.0103,0.0091,0.0053,0.001,-0.0027,-0.0051,-0.0088,-0.0117,-0.0153,-0.0127,-0.0123,-0.0119,-0.0112,-0.0163,-0.0162,-0.017,-0.017,-0.017,0,0,0.0202,0.0196,0.0199,0.0189,0.0176,0.0177,0.0148,0.0142,0.014,0.0082,0.0066,0.0025,-0.0031,-0.0059,-0.0077,-0.009,-0.0136,-0.0119,-0.0115,-0.0111,-0.0163,-0.0162,-0.0162,-0.017,-0.017,-0.017,0,0,0.0223,0.0218,0.0232,0.0225,0.0212,0.0196,0.0197,0.0172,0.0159,0.0137,0.0096,0.0058,0.0002,-0.0035,-0.0062,-0.0061,-0.0109,-0.0075,-0.004,-0.009,-0.0089,-0.0089,-0.013,-0.0134,-0.0076,-0.0076,-0.0076,0,0.0232,0.0249,0.0232,0.0243,0.0245,0.0209,0.0224,0.0205,0.0169,0.0161,0.0141,0.0063,0.0014,-0.0022,-0.0021,-0.005,-0.0083,-0.0051,-0.0083,-0.0083,-0.0085,-0.0127,-0.0132,-0.0072,-0.0073,-0.0073,-0.0073,0,0.0264,0.0278,0.0287,0.0292,0.0289,0.0296,0.0272,0.0263,0.0241,0.0218,0.0183,0.0117,0.0072,0.0047,0.0012,-0.002,-0.0041,-0.0067,-0.0089,-0.0079,-0.0125,-0.0132,-0.0067,-0.0069,-0.007,-0.007,0,0,0.0285,0.0307,0.031,0.0328,0.032,0.0323,0.0321,0.0311,0.0317,0.0267,0.0263,0.0189,0.0155,0.0121,0.0069,0.0021,-0.002,-0.002,-0.0025,-0.005,-0.0122,-0.012,-0.0129,-0.0049,-0.005,-0.0051,-0.0149,0,0.0315,0.0357,0.0355,0.0391,0.0413,0.0391,0.0396,0.038,0.0356,0.0342,0.0269,0.0243,0.0183,0.0165,0.0107,0.0013,-0.0036,0.001,-0.0139,-0.0143,-0.0133,-0.0136,-0.0054,-0.0154,-0.0156,-0.0157,-0.0158,0,0.0348,0.0375,0.0422,0.0456,0.0463,0.0475,0.0487,0.0491,0.0456,0.0439,0.0394,0.0337,0.0262,0.0212,0.0058,0.0091,-0.0005,-0.0083,-0.0089,-0.0116,-0.0154,-0.0171,-0.0172,-0.0171,-0.017,-0.0169,-0.0168,0,0.0379,0.0422,0.0465,0.0477,0.0504,0.0521,0.0533,0.052,0.054,0.0505,0.0507,0.0405,0.0361,0.0227,0.0065,0.0061,-0.0104,-0.0135,-0.0224,-0.0226,-0.0229,-0.0229,-0.024,-0.024,-0.024,-0.024,-0.0239,0,0.0414,0.0451,0.0488,0.0514,0.0575,0.0571,0.0627,0.0623,0.0626,0.0653,0.0566,0.0553,0.0362,0.0244,0.0091,-0.0083,-0.0089,-0.0215,-0.025,-0.0197,-0.0191,-0.0235,-0.0233,-0.0243,-0.0243,-0.0242,-0.0241,0,0.0442,0.0464,0.0524,0.057,0.0596,0.0639,0.0708,0.074,0.0736,0.0768,0.0762,0.0659,0.0504,0.0309,0.0085,-0.004,-0.0214,-0.0275,-0.0192,-0.0222,-0.0309,-0.0302,-0.0383,-0.0384,-0.0385,-0.0385,-0.0386,0,0.046,0.0494,0.0576,0.0622,0.0649,0.0721,0.077,0.0797,0.0836,0.0831,0.0844,0.0716,0.062,0.0322,0.0103,-0.0185,-0.0231,-0.032,-0.0326,-0.0297,-0.0324,-0.0316,-0.0309,-0.0387,-0.0387,-0.0387,-0.0387,0,0.0497,0.0525,0.0575,0.0677,0.0743,0.0827,0.0899,0.0939,0.0962,0.0959,0.0918,0.0761,0.0586,0.0336,0.0112,-0.0097,-0.0262,-0.0327,-0.0328,-0.0335,-0.0303,-0.0326,-0.0319,-0.0389,-0.0389,-0.0389,-0.0389,0,0.0525,0.0567,0.0637,0.0724,0.0817,0.0901,0.094,0.0981,0.102,0.1006,0.0988,0.0799,0.0685,0.0382,0.0176,-0.003,-0.0091,-0.0161,-0.0172,-0.0172,-0.0088,-0.0015,-0.0039,0,0,0,0,0,0.0548,0.0597,0.068,0.0776,0.0867,0.0927,0.1011,0.1036,0.1061,0.1044,0.1022,0.086,0.0558,0.043,0.0224,0.0142,-0.0141,-0.0108,-0.023,-0.0401,-0.0399,-0.0337,0,0,0,0,0,0,0.0565,0.064,0.0679,0.0802,0.0877,0.0983,0.104,0.1056,0.1051,0.1042,0.089,0.081,0.0518,0.068,0.0223,0.0159,0.0053,-0.0249,-0.0254,-0.0403,-0.0401,-0.0399,-0.0334,0,0,0,0,0]}]]